| time (UTC) | temp C | wind direction | speed KPH | gust KPH | rain 1hr cm | rain 24hr cm | rain mn cm | humidity % | barometer mb |
| 20260504000321 | 15 | 340 | 19.3 | 24.1 | 0.00 | 0.13 | 0.00 | 78 | 1022.5 |
| 20260503235829 | 15 | 322 | 17.7 | 22.5 | 0.00 | 0.13 | 0.00 | 78 | 1022.5 |
| 20260503235326 | 15 | 14 | 19.3 | 24.1 | 0.00 | 0.13 | 0.00 | 79 | 1022.5 |
| 20260503234843 | 15 | 323 | 17.7 | 25.7 | 0.00 | 0.13 | 0.00 | 80 | 1022.5 |
| 20260503234320 | 15 | 328 | 20.9 | 27.4 | 0.00 | 0.13 | 0.00 | 80 | 1022.5 |
| 20260503233817 | 15 | 319 | 22.5 | 27.4 | 0.00 | 0.13 | 0.00 | 81 | 1022.5 |
| 20260503233317 | 15 | 339 | 19.3 | 22.5 | 0.00 | 0.13 | 0.00 | 80 | 1022.4 |
| 20260503232824 | 15 | 1 | 12.9 | 19.3 | 0.00 | 0.13 | 0.00 | 79 | 1022.5 |
| 20260503232321 | 15 | 329 | 12.9 | 19.3 | 0.00 | 0.13 | 0.00 | 79 | 1022.5 |
| 20260503231819 | 15 | 308 | 14.5 | 19.3 | 0.00 | 0.13 | 0.00 | 76 | 1022.5 |
| 20260503231316 | 15 | 323 | 14.5 | 20.9 | 0.00 | 0.13 | 0.00 | 78 | 1022.5 |
| 20260503230814 | 15 | 347 | 16.1 | 20.9 | 0.00 | 0.13 | 0.00 | 79 | 1022.5 |
| 20260503230355 | 15 | 333 | 16.1 | 19.3 | 0.00 | 0.13 | 0.00 | 78 | 1022.5 |
| 20260503225844 | 15 | 333 | 14.5 | 20.9 | 0.00 | 0.13 | 0.13 | 76 | 1022.5 |
| 20260503225323 | 15 | 329 | 16.1 | 20.9 | 0.00 | 0.13 | 0.13 | 77 | 1022.5 |
| 20260503224821 | 15 | 311 | 17.7 | 22.5 | 0.00 | 0.13 | 0.13 | 76 | 1022.5 |
| 20260503224319 | 15 | 326 | 19.3 | 22.5 | 0.00 | 0.13 | 0.13 | 76 | 1022.5 |
| 20260503223817 | 15 | 330 | 17.7 | 22.5 | 0.00 | 0.13 | 0.13 | 77 | 1022.6 |
| 20260503223401 | 15 | 327 | 19.3 | 24.1 | 0.00 | 0.13 | 0.13 | 76 | 1022.6 |
| 20260503222830 | 15 | 346 | 14.5 | 24.1 | 0.00 | 0.13 | 0.13 | 78 | 1022.6 |
| 20260503222347 | 15 | 311 | 16.1 | 20.9 | 0.00 | 0.13 | 0.13 | 80 | 1022.6 |
| 20260503221844 | 15 | 333 | 12.9 | 20.9 | 0.00 | 0.13 | 0.13 | 80 | 1022.6 |
| 20260503221321 | 15 | 340 | 12.9 | 20.9 | 0.00 | 0.13 | 0.13 | 80 | 1022.6 |
| 20260503220819 | 15 | 323 | 14.5 | 22.5 | 0.00 | 0.13 | 0.13 | 78 | 1022.5 |
| 20260503220337 | 15 | 335 | 16.1 | 22.5 | 0.00 | 0.13 | 0.13 | 78 | 1022.5 |
| 20260503215815 | 15 | 338 | 19.3 | 24.1 | 0.00 | 0.13 | 0.13 | 76 | 1022.5 |
| 20260503215334 | 15 | 323 | 17.7 | 24.1 | 0.00 | 0.13 | 0.13 | 77 | 1022.5 |
| 20260503214852 | 15 | 327 | 16.1 | 22.5 | 0.00 | 0.13 | 0.13 | 78 | 1022.4 |
| 20260503214328 | 15 | 326 | 17.7 | 25.7 | 0.00 | 0.13 | 0.13 | 79 | 1022.5 |
| 20260503213827 | 15 | 354 | 19.3 | 25.7 | 0.00 | 0.13 | 0.13 | 79 | 1022.4 |
| 20260503213346 | 15 | 330 | 14.5 | 24.1 | 0.00 | 0.13 | 0.13 | 79 | 1022.3 |
| 20260503212822 | 15 | 342 | 19.3 | 24.1 | 0.00 | 0.13 | 0.13 | 78 | 1022.3 |
| 20260503212319 | 15 | 354 | 16.1 | 24.1 | 0.00 | 0.13 | 0.13 | 78 | 1022.3 |
| 20260503211817 | 15 | 332 | 19.3 | 22.5 | 0.00 | 0.13 | 0.13 | 79 | 1022.2 |
| 20260503211315 | 15 | 358 | 16.1 | 22.5 | 0.00 | 0.13 | 0.13 | 79 | 1022.2 |
| 20260503210813 | 15 | 331 | 14.5 | 24.1 | 0.00 | 0.13 | 0.13 | 79 | 1022.2 |
| 20260503210350 | 15 | 320 | 19.3 | 25.7 | 0.00 | 0.13 | 0.13 | 80 | 1022.2 |
| 20260503205824 | 15 | 327 | 17.7 | 25.7 | 0.00 | 0.13 | 0.13 | 80 | 1022.2 |
| 20260503205322 | 15 | 328 | 14.5 | 24.1 | 0.00 | 0.13 | 0.13 | 80 | 1022.0 |
| 20260503204819 | 15 | 328 | 17.7 | 24.1 | 0.00 | 0.13 | 0.13 | 80 | 1022.0 |
| 20260503204316 | 15 | 350 | 16.1 | 22.5 | 0.00 | 0.13 | 0.13 | 80 | 1021.9 |
| 20260503203815 | 15 | 23 | 14.5 | 20.9 | 0.00 | 0.13 | 0.13 | 81 | 1021.9 |
| 20260503203335 | 15 | 340 | 16.1 | 20.9 | 0.00 | 0.13 | 0.13 | 80 | 1021.8 |
| 20260503202813 | 15 | 351 | 14.5 | 20.9 | 0.00 | 0.13 | 0.13 | 80 | 1021.7 |
| 20260503202331 | 15 | 349 | 14.5 | 20.9 | 0.00 | 0.13 | 0.13 | 80 | 1021.7 |
| 20260503201827 | 15 | 331 | 14.5 | 19.3 | 0.00 | 0.13 | 0.13 | 80 | 1021.6 |
| 20260503201325 | 15 | 347 | 12.9 | 20.9 | 0.00 | 0.13 | 0.13 | 81 | 1021.6 |
| 20260503200822 | 15 | 345 | 17.7 | 24.1 | 0.00 | 0.13 | 0.13 | 79 | 1021.5 |
| 20260503200320 | 15 | 329 | 17.7 | 22.5 | 0.00 | 0.13 | 0.13 | 80 | 1021.4 |
| 20260503195822 | 15 | 300 | 14.5 | 20.9 | 0.00 | 0.13 | 0.13 | 80 | 1021.4 |
| 20260503195322 | 15 | 314 | 14.5 | 20.9 | 0.00 | 0.13 | 0.13 | 80 | 1021.4 |
| 20260503194821 | 15 | 349 | 14.5 | 22.5 | 0.00 | 0.13 | 0.13 | 80 | 1021.3 |
| 20260503194318 | 15 | 344 | 14.5 | 22.5 | 0.00 | 0.13 | 0.13 | 78 | 1021.3 |
| 20260503193818 | 15 | 330 | 14.5 | 20.9 | 0.00 | 0.13 | 0.13 | 80 | 1021.2 |
| 20260503193318 | 15 | 319 | 12.9 | 19.3 | 0.00 | 0.13 | 0.13 | 79 | 1021.1 |
| 20260503192834 | 15 | 329 | 14.5 | 20.9 | 0.00 | 0.13 | 0.13 | 78 | 1021.1 |
| 20260503192331 | 15 | 332 | 12.9 | 20.9 | 0.00 | 0.13 | 0.13 | 77 | 1021.0 |
| 20260503191829 | 15 | 345 | 14.5 | 24.1 | 0.00 | 0.13 | 0.13 | 78 | 1021.0 |
| 20260503191327 | 15 | 337 | 19.3 | 24.1 | 0.00 | 0.13 | 0.13 | 77 | 1020.9 |
| 20260503190844 | 15 | 328 | 16.1 | 22.5 | 0.00 | 0.13 | 0.13 | 78 | 1020.9 |
| 20260503190323 | 16 | 335 | 16.1 | 22.5 | 0.00 | 0.13 | 0.13 | 78 | 1020.9 |
| 20260503185819 | 16 | 323 | 16.1 | 25.7 | 0.00 | 0.13 | 0.13 | 79 | 1020.8 |
| 20260503185317 | 16 | 335 | 17.7 | 25.7 | 0.00 | 0.13 | 0.13 | 78 | 1020.8 |
| 20260503184813 | 15 | 335 | 17.7 | 24.1 | 0.00 | 0.13 | 0.13 | 78 | 1020.8 |
| 20260503184332 | 16 | 328 | 16.1 | 22.5 | 0.00 | 0.13 | 0.13 | 78 | 1020.8 |
| 20260503183822 | 16 | 339 | 17.7 | 22.5 | 0.00 | 0.13 | 0.13 | 78 | 1020.8 |
| 20260503183322 | 16 | 329 | 19.3 | 24.1 | 0.00 | 0.13 | 0.13 | 78 | 1020.8 |
| 20260503182838 | 16 | 342 | 17.7 | 24.1 | 0.00 | 0.13 | 0.13 | 79 | 1020.7 |
| 20260503182312 | 16 | 326 | 17.7 | 25.7 | 0.00 | 0.13 | 0.13 | 78 | 1020.8 |
| 20260503181826 | 16 | 354 | 19.3 | 25.7 | 0.00 | 0.13 | 0.13 | 77 | 1020.8 |
| 20260503181324 | 16 | 319 | 20.9 | 24.1 | 0.00 | 0.13 | 0.13 | 77 | 1020.7 |
| 20260503180822 | 16 | 343 | 17.7 | 24.1 | 0.00 | 0.13 | 0.13 | 79 | 1020.7 |
| 20260503180322 | 16 | 343 | 17.7 | 24.1 | 0.00 | 0.13 | 0.13 | 78 | 1020.7 |
| 20260503175827 | 16 | 346 | 17.7 | 22.5 | 0.00 | 0.13 | 0.13 | 80 | 1020.7 |
| 20260503175412 | 16 | 335 | 17.7 | 22.5 | 0.00 | 0.13 | 0.13 | 80 | 1020.7 |
| 20260503174846 | 16 | 333 | 12.9 | 17.7 | 0.00 | 0.13 | 0.13 | 83 | 1020.7 |
| 20260503174344 | 16 | 338 | 14.5 | 17.7 | 0.00 | 0.13 | 0.13 | 83 | 1020.8 |
| 20260503173821 | 16 | 330 | 14.5 | 17.7 | 0.00 | 0.13 | 0.13 | 82 | 1020.9 |
| 20260503173320 | 16 | 332 | 12.9 | 19.3 | 0.00 | 0.13 | 0.13 | 83 | 1020.9 |
| 20260503172838 | 16 | 348 | 12.9 | 19.3 | 0.00 | 0.13 | 0.13 | 83 | 1020.9 |
| 20260503172335 | 16 | 346 | 14.5 | 19.3 | 0.00 | 0.13 | 0.13 | 83 | 1020.9 |
| 20260503171812 | 16 | 325 | 12.9 | 16.1 | 0.00 | 0.13 | 0.13 | 84 | 1020.9 |
| 20260503171350 | 16 | 338 | 9.7 | 16.1 | 0.00 | 0.13 | 0.13 | 85 | 1020.9 |
| 20260503170827 | 16 | 333 | 11.3 | 16.1 | 0.00 | 0.13 | 0.13 | 85 | 1021.0 |
| 20260503170346 | 16 | 338 | 9.7 | 17.7 | 0.00 | 0.13 | 0.13 | 85 | 1020.9 |
| 20260503150852 | 16 | 329 | 17.7 | 20.9 | 0.00 | 0.13 | 0.13 | 81 | 1021.1 |
| 20260503150329 | 16 | 318 | 16.1 | 19.3 | 0.00 | 0.13 | 0.13 | 80 | 1021.1 |
| 20260503131327 | 16 | 325 | 12.9 | 14.5 | 0.00 | 0.13 | 0.13 | 84 | 1021.3 |
| 20260503130845 | 16 | 322 | 11.3 | 14.5 | 0.00 | 0.13 | 0.13 | 84 | 1021.3 |
| 20260503130322 | 16 | 333 | 12.9 | 14.5 | 0.00 | 0.13 | 0.13 | 85 | 1021.3 |
| 20260503110817 | 16 | 303 | 3.2 | 9.7 | 0.03 | 0.13 | 0.13 | 85 | 1021.7 |
| 20260503110336 | 16 | 304 | 3.2 | 12.9 | 0.03 | 0.13 | 0.13 | 85 | 1021.6 |
| 20260503090322 | 16 | 261 | 1.6 | 12.9 | 0.00 | 0.41 | 0.00 | 84 | 1021.3 |
| 20260503081340 | 16 | 292 | 3.2 | 9.7 | 0.00 | 0.69 | 0.00 | 81 | 1021.2 |
| 20260503080817 | 16 | 280 | 3.2 | 8.0 | 0.00 | 0.69 | 0.00 | 81 | 1021.1 |
| 20260503080335 | 16 | 299 | 3.2 | 6.4 | 0.00 | 0.69 | 0.00 | 81 | 1021.1 |
| 20260503072813 | 16 | 269 | 1.6 | 9.7 | 0.00 | 0.91 | 0.00 | 84 | 1020.9 |
| 20260503072332 | 15 | 290 | 1.6 | 8.0 | 0.00 | 0.91 | 0.00 | 84 | 1021.0 |
| 20260503071828 | 15 | 295 | 3.2 | 8.0 | 0.00 | 0.91 | 0.00 | 85 | 1021.0 |
| 20260503071327 | 15 | 207 | 3.2 | 8.0 | 0.00 | 0.91 | 0.00 | 86 | 1021.0 |
| 20260503070824 | 15 | 255 | 3.2 | 6.4 | 0.00 | 0.91 | 0.00 | 86 | 1021.0 |
| 20260503060322 | 14 | 279 | 1.6 | 4.8 | 0.00 | 0.99 | 0.00 | 88 | 1020.7 |
| 20260503054813 | 14 | 321 | 1.6 | 4.8 | 0.00 | 1.12 | 0.00 | 88 | 1020.6 |
| 20260503054331 | 14 | 295 | 0.0 | 4.8 | 0.00 | 1.12 | 0.00 | 87 | 1020.6 |
| 20260503053827 | 15 | 271 | 1.6 | 4.8 | 0.00 | 1.12 | 0.00 | 87 | 1020.6 |
| 20260503053326 | 15 | 316 | 0.0 | 3.2 | 0.00 | 1.12 | 0.00 | 87 | 1020.5 |
| 20260503052822 | 15 | 312 | 0.0 | 3.2 | 0.00 | 1.12 | 0.00 | 87 | 1020.5 |
| 20260503052320 | 15 | 308 | 0.0 | 3.2 | 0.00 | 1.12 | 0.00 | 87 | 1020.4 |
| 20260503051818 | 15 | 317 | 0.0 | 8.0 | 0.00 | 1.12 | 0.00 | 86 | 1020.4 |
| 20260503051330 | 15 | 323 | 3.2 | 8.0 | 0.00 | 1.12 | 0.00 | 86 | 1020.5 |
| 20260503050827 | 15 | 328 | 1.6 | 8.0 | 0.00 | 1.12 | 0.00 | 86 | 1020.5 |
| 20260503050327 | 15 | 316 | 3.2 | 8.0 | 0.00 | 1.12 | 0.00 | 86 | 1020.5 |
| 20260503045823 | 15 | 289 | 3.2 | 8.0 | 0.00 | 1.12 | 0.00 | 86 | 1020.5 |
| 20260503045322 | 15 | 346 | 3.2 | 8.0 | 0.00 | 1.12 | 0.00 | 86 | 1020.5 |
| 20260503044819 | 15 | 302 | 1.6 | 9.7 | 0.00 | 1.12 | 0.00 | 86 | 1020.5 |
| 20260503044313 | 15 | 301 | 4.8 | 9.7 | 0.00 | 1.12 | 0.00 | 86 | 1020.6 |
| 20260503043851 | 15 | 328 | 3.2 | 9.7 | 0.00 | 1.12 | 0.00 | 86 | 1020.5 |
| 20260503043330 | 15 | 345 | 3.2 | 8.0 | 0.00 | 1.12 | 0.00 | 86 | 1020.5 |
| 20260503042827 | 15 | 290 | 1.6 | 11.3 | 0.00 | 1.12 | 0.00 | 86 | 1020.4 |
| 20260503042326 | 15 | 327 | 3.2 | 11.3 | 0.00 | 1.12 | 0.00 | 87 | 1020.4 |
| 20260503041823 | 15 | 252 | 1.6 | 9.7 | 0.00 | 1.12 | 0.00 | 87 | 1020.3 |
| 20260503041344 | 15 | 316 | 3.2 | 9.7 | 0.00 | 1.12 | 0.00 | 87 | 1020.4 |
| 20260503040820 | 15 | 338 | 3.2 | 8.0 | 0.00 | 1.12 | 0.00 | 87 | 1020.4 |
| 20260503040317 | 15 | 330 | 3.2 | 9.7 | 0.00 | 1.12 | 0.00 | 87 | 1020.5 |
| 20260503035814 | 15 | 305 | 1.6 | 8.0 | 0.00 | 1.12 | 0.00 | 87 | 1020.5 |
| 20260503035313 | 15 | 300 | 3.2 | 6.4 | 0.00 | 1.12 | 0.00 | 87 | 1020.5 |
| 20260503034832 | 15 | 336 | 1.6 | 9.7 | 0.00 | 1.12 | 0.00 | 87 | 1020.5 |
| 20260503034327 | 15 | 349 | 1.6 | 9.7 | 0.00 | 1.12 | 0.00 | 87 | 1020.5 |
| 20260503033821 | 15 | 297 | 3.2 | 9.7 | 0.00 | 1.12 | 0.00 | 88 | 1020.5 |
| 20260503033320 | 15 | 330 | 1.6 | 8.0 | 0.00 | 1.12 | 0.00 | 88 | 1020.6 |
| 20260503032816 | 15 | 33 | 1.6 | 8.0 | 0.00 | 1.12 | 0.00 | 88 | 1020.7 |
| 20260503032335 | 15 | 337 | 1.6 | 8.0 | 0.00 | 1.12 | 0.00 | 88 | 1020.7 |
| 20260503031828 | 15 | 4 | 3.2 | 8.0 | 0.00 | 1.12 | 0.00 | 88 | 1020.8 |
| 20260503031324 | 15 | 328 | 0.0 | 6.4 | 0.00 | 1.12 | 0.00 | 88 | 1020.7 |
| 20260503030822 | 15 | 348 | 1.6 | 8.0 | 0.00 | 1.12 | 0.00 | 88 | 1020.8 |
| 20260503030340 | 15 | 349 | 3.2 | 8.0 | 0.00 | 1.12 | 0.00 | 88 | 1020.7 |
| 20260503025837 | 15 | 328 | 1.6 | 6.4 | 0.00 | 1.12 | 0.00 | 88 | 1020.8 |
| 20260503025313 | 15 | 305 | 1.6 | 8.0 | 0.00 | 1.12 | 0.00 | 88 | 1020.8 |
| 20260503024830 | 15 | 313 | 1.6 | 8.0 | 0.00 | 1.12 | 0.00 | 88 | 1020.8 |
| 20260503024326 | 15 | 314 | 3.2 | 9.7 | 0.00 | 1.12 | 0.00 | 89 | 1020.9 |
| 20260503023825 | 15 | 306 | 3.2 | 9.7 | 0.00 | 1.12 | 0.00 | 89 | 1020.9 |
| 20260503023327 | 15 | 340 | 1.6 | 8.0 | 0.00 | 1.12 | 0.00 | 90 | 1020.9 |
| 20260503022822 | 15 | 318 | 3.2 | 8.0 | 0.00 | 1.12 | 0.00 | 90 | 1021.0 |
| 20260503022321 | 15 | 319 | 1.6 | 8.0 | 0.00 | 1.12 | 0.00 | 90 | 1021.0 |
| 20260503021819 | 15 | 307 | 1.6 | 6.4 | 0.00 | 1.12 | 0.00 | 90 | 1020.9 |
| 20260503021317 | 15 | 318 | 1.6 | 6.4 | 0.00 | 1.12 | 0.00 | 90 | 1021.0 |
| 20260503020816 | 15 | 290 | 1.6 | 6.4 | 0.00 | 1.12 | 0.00 | 90 | 1021.0 |
| 20260503020402 | 15 | 326 | 1.6 | 6.4 | 0.00 | 1.12 | 0.00 | 89 | 1021.0 |
| 20260503015818 | 15 | 328 | 1.6 | 6.4 | 0.00 | 1.12 | 0.00 | 89 | 1021.1 |
| 20260503015315 | 15 | 21 | 0.0 | 9.7 | 0.00 | 1.12 | 0.00 | 88 | 1021.0 |
| 20260503014813 | 15 | 309 | 3.2 | 9.7 | 0.00 | 1.12 | 0.00 | 87 | 1021.1 |
| 20260503014332 | 15 | 310 | 1.6 | 9.7 | 0.00 | 1.12 | 0.00 | 88 | 1021.1 |
| 20260503013829 | 15 | 297 | 3.2 | 9.7 | 0.00 | 1.12 | 0.00 | 88 | 1021.1 |
| 20260503013346 | 15 | 293 | 3.2 | 9.7 | 0.00 | 1.12 | 0.00 | 88 | 1021.1 |
| 20260503012841 | 15 | 283 | 4.8 | 12.9 | 0.00 | 1.12 | 0.00 | 88 | 1021.2 |
| 20260503012315 | 15 | 316 | 4.8 | 12.9 | 0.00 | 1.12 | 0.00 | 88 | 1021.2 |
| 20260503011316 | 15 | 306 | 4.8 | 12.9 | 0.00 | 1.12 | 0.00 | 89 | 1021.4 |
| 20260503010832 | 15 | 350 | 3.2 | 9.7 | 0.00 | 1.12 | 0.00 | 89 | 1021.4 |
| 20260503010333 | 15 | 299 | 3.2 | 9.7 | 0.00 | 1.12 | 0.00 | 89 | 1021.4 |
| 20260503005851 | 15 | 312 | 4.8 | 11.3 | 0.00 | 1.12 | 0.00 | 89 | 1021.4 |
| 20260503005327 | 15 | 339 | 3.2 | 11.3 | 0.00 | 1.12 | 0.00 | 89 | 1021.4 |
| 20260503004823 | 15 | 328 | 3.2 | 9.7 | 0.00 | 1.12 | 0.00 | 90 | 1021.5 |
| 20260503004321 | 15 | 332 | 4.8 | 8.0 | 0.00 | 1.12 | 0.00 | 90 | 1021.6 |
| 20260503003836 | 15 | 13 | 1.6 | 8.0 | 0.00 | 1.12 | 0.00 | 90 | 1021.6 |
| 20260503003334 | 15 | 296 | 3.2 | 8.0 | 0.00 | 1.12 | 0.00 | 90 | 1021.7 |
| 20260503002830 | 15 | 359 | 1.6 | 9.7 | 0.00 | 1.12 | 0.00 | 90 | 1021.7 |
| 20260503002328 | 15 | 280 | 3.2 | 9.7 | 0.00 | 1.12 | 0.00 | 90 | 1021.7 |
| 20260503001825 | 15 | 328 | 0.0 | 8.0 | 0.00 | 1.12 | 0.00 | 90 | 1021.6 |
| 20260503001320 | 15 | 336 | 3.2 | 8.0 | 0.00 | 1.12 | 0.00 | 90 | 1021.7 |
| 20260503000817 | 15 | 308 | 1.6 | 6.4 | 0.00 | 1.12 | 0.00 | 90 | 1021.8 |